Time,TemperatureF,DewpointF,PressureIn,WindDirection,WindDirectionDegrees,WindSpeedMPH,WindSpeedGustMPH,Humidity,HourlyPrecipIn,Conditions,Clouds,dailyrainin,SoftwareType,DateUTC
2013-05-06 00:00:00,69.5,64.1,29.97,SW,225,3.0,-999.0,83,0.01,,,0.02,Wunderground v.1.15,2013-05-06 10:00:00,
2013-05-06 00:05:00,69.5,64.1,29.97,SW,225,3.0,-999.0,83,0.01,,,0.02,Wunderground v.1.15,2013-05-06 10:05:00,
2013-05-06 00:10:00,69.5,64.1,29.97,SW,225,3.0,-999.0,83,0.01,,,0.02,Wunderground v.1.15,2013-05-06 10:10:00,
2013-05-06 00:15:00,69.5,64.1,29.97,SW,225,3.0,-999.0,83,0.01,,,0.02,Wunderground v.1.15,2013-05-06 10:15:00,
2013-05-06 00:20:00,69.5,64.1,29.97,SW,225,3.0,-999.0,83,0.01,,,0.02,Wunderground v.1.15,2013-05-06 10:20:00,
2013-05-06 00:25:00,69.5,64.1,29.97,SW,225,3.0,-999.0,83,0.01,,,0.02,Wunderground v.1.15,2013-05-06 10:25:00,
2013-05-06 00:30:00,69.5,64.1,29.97,SW,225,3.0,-999.0,83,0.01,,,0.02,Wunderground v.1.15,2013-05-06 10:30:00,
2013-05-06 00:35:00,69.5,64.1,29.97,SW,225,3.0,-999.0,83,0.01,,,0.02,Wunderground v.1.15,2013-05-06 10:35:00,
2013-05-06 00:40:00,69.5,64.1,29.97,SW,225,3.0,-999.0,83,0.01,,,0.02,Wunderground v.1.15,2013-05-06 10:40:00,
2013-05-06 00:45:00,68.7,64.7,29.97,SW,225,1.0,-999.0,87,0.00,,,0.02,Wunderground v.1.15,2013-05-06 10:45:00,
2013-05-06 00:50:00,68.7,64.7,29.97,SW,225,1.0,-999.0,87,0.00,,,0.02,Wunderground v.1.15,2013-05-06 10:50:00,
2013-05-06 00:55:00,68.7,64.7,29.97,SW,225,1.0,-999.0,87,0.00,,,0.02,Wunderground v.1.15,2013-05-06 10:55:00,
2013-05-06 01:00:00,68.7,64.7,29.97,SW,225,1.0,-999.0,87,0.00,,,0.02,Wunderground v.1.15,2013-05-06 11:00:00,
2013-05-06 01:05:00,68.7,64.7,29.97,SW,225,1.0,-999.0,87,0.00,,,0.02,Wunderground v.1.15,2013-05-06 11:05:00,
2013-05-06 01:10:00,68.7,64.7,29.97,SW,225,1.0,-999.0,87,0.00,,,0.02,Wunderground v.1.15,2013-05-06 11:10:00,
2013-05-06 01:15:00,67.7,64.0,29.95,SW,225,0.0,-999.0,88,0.00,,,0.02,Wunderground v.1.15,2013-05-06 11:15:00,
2013-05-06 01:20:00,67.7,64.0,29.95,SW,225,0.0,-999.0,88,0.00,,,0.02,Wunderground v.1.15,2013-05-06 11:20:00,
2013-05-06 01:25:00,67.7,64.0,29.95,SW,225,0.0,-999.0,88,0.00,,,0.02,Wunderground v.1.15,2013-05-06 11:25:00,
2013-05-06 01:30:00,67.7,64.0,29.95,SW,225,0.0,-999.0,88,0.00,,,0.02,Wunderground v.1.15,2013-05-06 11:30:00,
2013-05-06 01:35:00,67.7,64.0,29.95,SW,225,0.0,-999.0,88,0.00,,,0.02,Wunderground v.1.15,2013-05-06 11:35:00,
2013-05-06 01:40:00,67.7,64.0,29.95,SW,225,0.0,-999.0,88,0.00,,,0.02,Wunderground v.1.15,2013-05-06 11:40:00,
2013-05-06 01:45:00,67.2,63.2,29.93,SW,225,0.0,-999.0,87,0.01,,,0.02,Wunderground v.1.15,2013-05-06 11:45:00,
2013-05-06 01:50:00,67.2,63.2,29.93,SW,225,0.0,-999.0,87,0.01,,,0.02,Wunderground v.1.15,2013-05-06 11:50:00,
2013-05-06 01:55:00,67.2,63.2,29.93,SW,225,0.0,-999.0,87,0.01,,,0.02,Wunderground v.1.15,2013-05-06 11:55:00,
2013-05-06 02:00:00,67.2,63.2,29.93,SW,225,0.0,-999.0,87,0.01,,,0.02,Wunderground v.1.15,2013-05-06 12:00:00,
2013-05-06 02:05:00,67.2,63.2,29.93,SW,225,0.0,-999.0,87,0.01,,,0.02,Wunderground v.1.15,2013-05-06 12:05:00,
2013-05-06 02:10:00,67.2,63.2,29.93,SW,225,0.0,-999.0,87,0.01,,,0.02,Wunderground v.1.15,2013-05-06 12:10:00,
2013-05-06 02:15:00,67.9,63.2,29.92,SW,225,1.0,-999.0,85,0.01,,,0.02,Wunderground v.1.15,2013-05-06 12:15:00,
2013-05-06 02:20:00,67.9,63.2,29.92,SW,225,1.0,-999.0,85,0.01,,,0.02,Wunderground v.1.15,2013-05-06 12:20:00,
2013-05-06 02:25:00,67.9,63.2,29.92,SW,225,1.0,-999.0,85,0.01,,,0.02,Wunderground v.1.15,2013-05-06 12:25:00,
2013-05-06 02:30:00,67.9,63.2,29.92,SW,225,1.0,-999.0,85,0.01,,,0.02,Wunderground v.1.15,2013-05-06 12:30:00,
2013-05-06 02:35:00,67.9,63.2,29.92,SW,225,1.0,-999.0,85,0.01,,,0.02,Wunderground v.1.15,2013-05-06 12:35:00,
2013-05-06 02:40:00,67.9,63.2,29.92,SW,225,1.0,-999.0,85,0.01,,,0.02,Wunderground v.1.15,2013-05-06 12:40:00,
2013-05-06 02:45:00,68.3,63.3,29.92,SW,225,1.0,-999.0,84,0.00,,,0.02,Wunderground v.1.15,2013-05-06 12:45:00,
2013-05-06 02:50:00,68.3,63.3,29.92,SW,225,1.0,-999.0,84,0.00,,,0.02,Wunderground v.1.15,2013-05-06 12:50:00,
2013-05-06 02:55:00,68.3,63.3,29.92,SW,225,1.0,-999.0,84,0.00,,,0.02,Wunderground v.1.15,2013-05-06 12:55:00,
2013-05-06 03:00:00,68.3,63.3,29.92,SW,225,1.0,-999.0,84,0.00,,,0.02,Wunderground v.1.15,2013-05-06 13:00:00,
2013-05-06 03:05:00,68.3,63.3,29.92,SW,225,1.0,-999.0,84,0.00,,,0.02,Wunderground v.1.15,2013-05-06 13:05:00,
2013-05-06 03:10:00,68.3,63.3,29.92,SW,225,1.0,-999.0,84,0.00,,,0.02,Wunderground v.1.15,2013-05-06 13:10:00,
2013-05-06 03:15:00,68.6,63.2,29.92,SW,225,1.0,-999.0,83,0.00,,,0.02,Wunderground v.1.15,2013-05-06 13:15:00,
2013-05-06 03:20:00,68.6,63.2,29.92,SW,225,1.0,-999.0,83,0.00,,,0.02,Wunderground v.1.15,2013-05-06 13:20:00,
2013-05-06 03:25:00,68.6,63.2,29.92,SW,225,1.0,-999.0,83,0.00,,,0.02,Wunderground v.1.15,2013-05-06 13:25:00,
2013-05-06 03:30:00,68.6,63.2,29.92,SW,225,1.0,-999.0,83,0.00,,,0.02,Wunderground v.1.15,2013-05-06 13:30:00,
2013-05-06 03:35:00,68.6,63.2,29.92,SW,225,1.0,-999.0,83,0.00,,,0.02,Wunderground v.1.15,2013-05-06 13:35:00,
2013-05-06 03:40:00,68.6,63.2,29.92,SW,225,1.0,-999.0,83,0.00,,,0.02,Wunderground v.1.15,2013-05-06 13:40:00,
2013-05-06 03:45:00,69.0,65.0,29.93,SW,225,2.0,-999.0,87,0.00,,,0.02,Wunderground v.1.15,2013-05-06 13:45:00,
2013-05-06 03:50:00,69.0,65.0,29.93,SW,225,2.0,-999.0,87,0.00,,,0.02,Wunderground v.1.15,2013-05-06 13:50:00,
2013-05-06 03:55:00,69.0,65.0,29.93,SW,225,2.0,-999.0,87,0.00,,,0.02,Wunderground v.1.15,2013-05-06 13:55:00,
2013-05-06 04:00:00,69.0,65.0,29.93,SW,225,2.0,-999.0,87,0.00,,,0.02,Wunderground v.1.15,2013-05-06 14:00:00,
2013-05-06 04:05:00,69.0,65.0,29.93,SW,225,2.0,-999.0,87,0.00,,,0.02,Wunderground v.1.15,2013-05-06 14:05:00,
2013-05-06 04:10:00,69.0,65.0,29.93,SW,225,2.0,-999.0,87,0.00,,,0.02,Wunderground v.1.15,2013-05-06 14:10:00,
2013-05-06 04:15:00,67.9,65.2,29.93,SW,225,2.0,-999.0,91,0.00,,,0.02,Wunderground v.1.15,2013-05-06 14:15:00,
2013-05-06 04:20:00,67.9,65.2,29.93,SW,225,2.0,-999.0,91,0.00,,,0.02,Wunderground v.1.15,2013-05-06 14:20:00,
2013-05-06 04:25:00,67.9,65.2,29.93,SW,225,2.0,-999.0,91,0.00,,,0.02,Wunderground v.1.15,2013-05-06 14:25:00,
2013-05-06 04:30:00,67.9,65.2,29.93,SW,225,2.0,-999.0,91,0.00,,,0.02,Wunderground v.1.15,2013-05-06 14:30:00,
2013-05-06 04:35:00,67.9,65.2,29.93,SW,225,2.0,-999.0,91,0.00,,,0.02,Wunderground v.1.15,2013-05-06 14:35:00,
2013-05-06 04:40:00,67.9,65.2,29.93,SW,225,2.0,-999.0,91,0.00,,,0.02,Wunderground v.1.15,2013-05-06 14:40:00,
2013-05-06 04:45:00,67.5,65.1,29.94,SW,225,1.0,-999.0,92,0.00,,,0.02,Wunderground v.1.15,2013-05-06 14:45:00,
2013-05-06 04:50:00,67.5,65.1,29.94,SW,225,1.0,-999.0,92,0.00,,,0.02,Wunderground v.1.15,2013-05-06 14:50:00,
2013-05-06 04:55:00,67.5,65.1,29.94,SW,225,1.0,-999.0,92,0.00,,,0.02,Wunderground v.1.15,2013-05-06 14:55:00,
2013-05-06 05:00:00,67.5,65.1,29.94,SW,225,1.0,-999.0,92,0.00,,,0.02,Wunderground v.1.15,2013-05-06 15:00:00,
2013-05-06 05:05:00,67.5,65.1,29.94,SW,225,1.0,-999.0,92,0.00,,,0.02,Wunderground v.1.15,2013-05-06 15:05:00,
2013-05-06 05:10:00,67.5,65.1,29.94,SW,225,1.0,-999.0,92,0.00,,,0.02,Wunderground v.1.15,2013-05-06 15:10:00,
2013-05-06 05:15:00,67.6,65.5,29.94,SW,225,0.0,-999.0,93,0.00,,,0.02,Wunderground v.1.15,2013-05-06 15:15:00,
2013-05-06 05:20:00,67.6,65.5,29.94,SW,225,0.0,-999.0,93,0.00,,,0.02,Wunderground v.1.15,2013-05-06 15:20:00,
2013-05-06 05:25:00,67.6,65.5,29.94,SW,225,0.0,-999.0,93,0.00,,,0.02,Wunderground v.1.15,2013-05-06 15:25:00,
2013-05-06 05:30:00,67.6,65.5,29.94,SW,225,0.0,-999.0,93,0.00,,,0.02,Wunderground v.1.15,2013-05-06 15:30:00,
2013-05-06 05:35:00,67.6,65.5,29.94,SW,225,0.0,-999.0,93,0.00,,,0.02,Wunderground v.1.15,2013-05-06 15:35:00,
2013-05-06 05:40:00,67.6,65.5,29.94,SW,225,0.0,-999.0,93,0.00,,,0.02,Wunderground v.1.15,2013-05-06 15:40:00,
2013-05-06 05:45:00,67.6,65.5,29.95,SW,225,0.0,-999.0,93,0.00,,,0.02,Wunderground v.1.15,2013-05-06 15:45:00,
2013-05-06 05:50:00,67.6,65.5,29.95,SW,225,0.0,-999.0,93,0.00,,,0.02,Wunderground v.1.15,2013-05-06 15:50:00,
2013-05-06 05:55:00,67.6,65.5,29.95,SW,225,0.0,-999.0,93,0.00,,,0.02,Wunderground v.1.15,2013-05-06 15:55:00,
2013-05-06 06:00:00,67.6,65.5,29.95,SW,225,0.0,-999.0,93,0.00,,,0.02,Wunderground v.1.15,2013-05-06 16:00:00,
2013-05-06 06:05:00,67.6,65.5,29.95,SW,225,0.0,-999.0,93,0.00,,,0.02,Wunderground v.1.15,2013-05-06 16:05:00,
2013-05-06 06:10:00,67.6,65.5,29.95,SW,225,0.0,-999.0,93,0.00,,,0.02,Wunderground v.1.15,2013-05-06 16:10:00,
2013-05-06 06:15:00,67.5,65.4,29.96,SW,225,0.0,-999.0,93,0.00,,,0.02,Wunderground v.1.15,2013-05-06 16:15:00,
2013-05-06 06:20:00,67.5,65.4,29.96,SW,225,0.0,-999.0,93,0.00,,,0.02,Wunderground v.1.15,2013-05-06 16:20:00,
2013-05-06 06:25:00,67.5,65.4,29.96,SW,225,0.0,-999.0,93,0.00,,,0.02,Wunderground v.1.15,2013-05-06 16:25:00,
2013-05-06 06:30:00,67.5,65.4,29.96,SW,225,0.0,-999.0,93,0.00,,,0.02,Wunderground v.1.15,2013-05-06 16:30:00,
2013-05-06 06:35:00,67.5,65.4,29.96,SW,225,0.0,-999.0,93,0.00,,,0.02,Wunderground v.1.15,2013-05-06 16:35:00,
2013-05-06 06:40:00,67.5,65.4,29.96,SW,225,0.0,-999.0,93,0.00,,,0.02,Wunderground v.1.15,2013-05-06 16:40:00,
2013-05-06 06:45:00,67.5,65.7,29.97,SW,225,0.0,-999.0,94,0.00,,,0.02,Wunderground v.1.15,2013-05-06 16:45:00,
2013-05-06 06:50:00,67.5,65.7,29.97,SW,225,0.0,-999.0,94,0.00,,,0.02,Wunderground v.1.15,2013-05-06 16:50:00,
2013-05-06 06:55:00,67.5,65.7,29.97,SW,225,0.0,-999.0,94,0.00,,,0.02,Wunderground v.1.15,2013-05-06 16:55:00,
2013-05-06 07:00:00,67.5,65.7,29.97,SW,225,0.0,-999.0,94,0.00,,,0.02,Wunderground v.1.15,2013-05-06 17:00:00,
2013-05-06 07:05:00,67.5,65.7,29.97,SW,225,0.0,-999.0,94,0.00,,,0.02,Wunderground v.1.15,2013-05-06 17:05:00,
2013-05-06 07:10:00,67.5,65.7,29.97,SW,225,0.0,-999.0,94,0.00,,,0.02,Wunderground v.1.15,2013-05-06 17:10:00,
2013-05-06 07:15:00,67.6,65.8,29.97,SW,225,0.0,-999.0,94,0.01,,,0.02,Wunderground v.1.15,2013-05-06 17:15:00,
2013-05-06 07:20:00,67.6,65.8,29.97,SW,225,0.0,-999.0,94,0.01,,,0.02,Wunderground v.1.15,2013-05-06 17:20:00,
2013-05-06 07:25:00,67.6,65.8,29.97,SW,225,0.0,-999.0,94,0.01,,,0.02,Wunderground v.1.15,2013-05-06 17:25:00,
2013-05-06 07:30:00,67.6,65.8,29.97,SW,225,0.0,-999.0,94,0.01,,,0.02,Wunderground v.1.15,2013-05-06 17:30:00,
2013-05-06 07:35:00,67.6,65.8,29.97,SW,225,0.0,-999.0,94,0.01,,,0.02,Wunderground v.1.15,2013-05-06 17:35:00,
2013-05-06 07:40:00,67.6,65.8,29.97,SW,225,0.0,-999.0,94,0.01,,,0.02,Wunderground v.1.15,2013-05-06 17:40:00,
2013-05-06 07:45:00,67.8,66.0,29.98,SW,225,0.0,-999.0,94,0.01,,,0.02,Wunderground v.1.15,2013-05-06 17:45:00,
2013-05-06 07:50:00,67.8,66.0,29.98,SW,225,0.0,-999.0,94,0.01,,,0.02,Wunderground v.1.15,2013-05-06 17:50:00,
2013-05-06 08:00:00,67.8,66.0,29.98,SW,225,0.0,-999.0,94,0.01,,,0.02,Wunderground v.1.15,2013-05-06 18:00:00,
2013-05-06 08:03:00,67.8,66.0,29.98,SW,225,0.0,-999.0,94,0.01,,,0.02,Wunderground v.1.15,2013-05-06 18:03:00,
2013-05-06 08:05:00,67.8,66.0,29.98,SW,225,0.0,-999.0,94,0.01,,,0.02,Wunderground v.1.15,2013-05-06 18:05:00,
2013-05-06 08:10:00,67.8,66.0,29.98,SW,225,0.0,-999.0,94,0.01,,,0.02,Wunderground v.1.15,2013-05-06 18:10:00,
2013-05-06 08:15:00,68.0,66.2,29.99,SW,225,0.0,-999.0,94,0.00,,,0.02,Wunderground v.1.15,2013-05-06 18:15:00,
2013-05-06 08:20:00,68.0,66.2,29.99,SW,225,0.0,-999.0,94,0.00,,,0.02,Wunderground v.1.15,2013-05-06 18:20:00,
2013-05-06 08:25:00,68.0,66.2,29.99,SW,225,0.0,-999.0,94,0.00,,,0.02,Wunderground v.1.15,2013-05-06 18:25:00,
2013-05-06 08:30:00,68.0,66.2,29.99,SW,225,0.0,-999.0,94,0.00,,,0.02,Wunderground v.1.15,2013-05-06 18:30:00,
2013-05-06 08:35:00,68.0,66.2,29.99,SW,225,0.0,-999.0,94,0.00,,,0.02,Wunderground v.1.15,2013-05-06 18:35:00,
2013-05-06 08:40:00,68.0,66.2,29.99,SW,225,0.0,-999.0,94,0.00,,,0.02,Wunderground v.1.15,2013-05-06 18:40:00,
2013-05-06 08:45:00,67.8,66.0,30.00,SW,225,0.0,-999.0,94,0.00,,,0.02,Wunderground v.1.15,2013-05-06 18:45:00,
2013-05-06 08:50:00,67.8,66.0,30.00,SW,225,0.0,-999.0,94,0.00,,,0.02,Wunderground v.1.15,2013-05-06 18:50:00,
2013-05-06 08:55:00,67.8,66.0,30.00,SW,225,0.0,-999.0,94,0.00,,,0.02,Wunderground v.1.15,2013-05-06 18:55:00,
2013-05-06 09:00:00,67.8,66.0,30.00,SW,225,0.0,-999.0,94,0.00,,,0.02,Wunderground v.1.15,2013-05-06 19:00:00,
2013-05-06 09:05:00,67.8,66.0,30.00,SW,225,0.0,-999.0,94,0.00,,,0.02,Wunderground v.1.15,2013-05-06 19:05:00,
2013-05-06 09:10:00,67.8,66.0,30.00,SW,225,0.0,-999.0,94,0.00,,,0.02,Wunderground v.1.15,2013-05-06 19:10:00,
2013-05-06 09:15:00,68.1,66.0,30.00,SW,225,1.0,-999.0,93,0.00,,,0.02,Wunderground v.1.15,2013-05-06 19:15:00,
2013-05-06 09:20:00,68.1,66.0,30.00,SW,225,1.0,-999.0,93,0.00,,,0.02,Wunderground v.1.15,2013-05-06 19:20:00,
2013-05-06 09:25:00,68.1,66.0,30.00,SW,225,1.0,-999.0,93,0.00,,,0.02,Wunderground v.1.15,2013-05-06 19:25:00,
2013-05-06 09:30:00,68.1,66.0,30.00,SW,225,1.0,-999.0,93,0.00,,,0.02,Wunderground v.1.15,2013-05-06 19:30:00,
2013-05-06 09:35:00,68.1,66.0,30.00,SW,225,1.0,-999.0,93,0.00,,,0.02,Wunderground v.1.15,2013-05-06 19:35:00,
2013-05-06 09:40:00,68.1,66.0,30.00,SW,225,1.0,-999.0,93,0.00,,,0.02,Wunderground v.1.15,2013-05-06 19:40:00,
2013-05-06 09:45:00,69.2,67.1,30.00,SW,225,3.0,-999.0,93,0.00,,,0.02,Wunderground v.1.15,2013-05-06 19:45:00,
2013-05-06 09:50:00,69.2,67.1,30.00,SW,225,3.0,-999.0,93,0.00,,,0.02,Wunderground v.1.15,2013-05-06 19:50:00,
2013-05-06 09:55:00,69.2,67.1,30.00,SW,225,3.0,-999.0,93,0.00,,,0.02,Wunderground v.1.15,2013-05-06 19:55:00,
2013-05-06 10:00:00,69.2,67.1,30.00,SW,225,3.0,-999.0,93,0.00,,,0.02,Wunderground v.1.15,2013-05-06 20:00:00,
2013-05-06 10:05:00,69.2,67.1,30.00,SW,225,3.0,-999.0,93,0.00,,,0.02,Wunderground v.1.15,2013-05-06 20:05:00,
2013-05-06 10:10:00,69.2,67.1,30.00,SW,225,3.0,-999.0,93,0.00,,,0.02,Wunderground v.1.15,2013-05-06 20:10:00,
2013-05-06 10:15:00,70.5,68.1,29.99,South,180,4.0,-999.0,92,0.00,,,0.02,Wunderground v.1.15,2013-05-06 20:15:00,
2013-05-06 10:20:00,70.5,68.1,29.99,South,180,4.0,-999.0,92,0.00,,,0.02,Wunderground v.1.15,2013-05-06 20:20:00,
2013-05-06 10:25:00,70.5,68.1,29.99,South,180,4.0,-999.0,92,0.00,,,0.02,Wunderground v.1.15,2013-05-06 20:25:00,
2013-05-06 10:30:00,70.5,68.1,29.99,South,180,4.0,-999.0,92,0.00,,,0.03,Wunderground v.1.15,2013-05-06 20:30:00,
2013-05-06 10:35:00,70.5,68.1,29.99,South,180,4.0,-999.0,92,0.00,,,0.03,Wunderground v.1.15,2013-05-06 20:35:00,
2013-05-06 10:38:00,70.5,68.1,29.99,South,180,4.0,-999.0,92,0.00,,,0.02,Wunderground v.1.15,2013-05-06 20:38:00,
2013-05-06 10:40:00,70.5,68.1,29.99,South,180,4.0,-999.0,92,0.00,,,0.03,Wunderground v.1.15,2013-05-06 20:40:00,
2013-05-06 10:45:00,72.1,67.3,29.99,SSE,158,2.0,-999.0,85,0.00,,,0.03,Wunderground v.1.15,2013-05-06 20:45:00,
2013-05-06 10:50:00,72.1,67.3,29.99,SSE,158,2.0,-999.0,85,0.00,,,0.03,Wunderground v.1.15,2013-05-06 20:50:00,
2013-05-06 10:55:00,72.1,67.3,29.99,SSE,158,2.0,-999.0,85,0.00,,,0.03,Wunderground v.1.15,2013-05-06 20:55:00,
2013-05-06 11:00:00,72.1,67.3,29.99,SSE,158,2.0,-999.0,85,0.00,,,0.03,Wunderground v.1.15,2013-05-06 21:00:00,
2013-05-06 11:05:00,72.1,67.3,29.99,SSE,158,2.0,-999.0,85,0.00,,,0.03,Wunderground v.1.15,2013-05-06 21:05:00,
2013-05-06 11:10:00,72.1,67.3,29.99,SSE,158,2.0,-999.0,85,0.00,,,0.03,Wunderground v.1.15,2013-05-06 21:10:00,
2013-05-06 11:15:00,74.6,66.5,29.99,SE,135,2.0,-999.0,76,0.00,,,0.03,Wunderground v.1.15,2013-05-06 21:15:00,
2013-05-06 11:20:00,74.6,66.5,29.99,SE,135,2.0,-999.0,76,0.00,,,0.03,Wunderground v.1.15,2013-05-06 21:20:00,
2013-05-06 11:25:00,74.6,66.5,29.99,SE,135,2.0,-999.0,76,0.00,,,0.03,Wunderground v.1.15,2013-05-06 21:25:00,
2013-05-06 11:30:00,74.6,66.5,29.99,SE,135,2.0,-999.0,76,0.00,,,0.03,Wunderground v.1.15,2013-05-06 21:30:00,
2013-05-06 11:35:00,74.6,66.5,29.99,SE,135,2.0,-999.0,76,0.00,,,0.03,Wunderground v.1.15,2013-05-06 21:35:00,
2013-05-06 11:40:00,74.6,66.5,29.99,SE,135,2.0,-999.0,76,0.00,,,0.03,Wunderground v.1.15,2013-05-06 21:40:00,
2013-05-06 11:45:00,77.1,66.1,29.98,SE,135,2.0,-999.0,69,0.01,,,0.03,Wunderground v.1.15,2013-05-06 21:45:00,
2013-05-06 11:50:00,77.1,66.1,29.98,SE,135,2.0,-999.0,69,0.01,,,0.03,Wunderground v.1.15,2013-05-06 21:50:00,
2013-05-06 11:55:00,77.1,66.1,29.98,SE,135,2.0,-999.0,69,0.01,,,0.03,Wunderground v.1.15,2013-05-06 21:55:00,
2013-05-06 12:00:00,77.1,66.1,29.98,SE,135,2.0,-999.0,69,0.01,,,0.03,Wunderground v.1.15,2013-05-06 22:00:00,
2013-05-06 12:05:00,77.1,66.1,29.98,SE,135,2.0,-999.0,69,0.01,,,0.03,Wunderground v.1.15,2013-05-06 22:05:00,
2013-05-06 12:10:00,77.1,66.1,29.98,SE,135,2.0,-999.0,69,0.01,,,0.03,Wunderground v.1.15,2013-05-06 22:10:00,
2013-05-06 12:15:00,78.9,66.6,29.97,ESE,113,4.0,-999.0,66,0.01,,,0.03,Wunderground v.1.15,2013-05-06 22:15:00,
2013-05-06 12:20:00,78.9,66.6,29.97,ESE,113,4.0,-999.0,66,0.01,,,0.03,Wunderground v.1.15,2013-05-06 22:20:00,
2013-05-06 12:25:00,78.9,66.6,29.97,ESE,113,4.0,-999.0,66,0.01,,,0.03,Wunderground v.1.15,2013-05-06 22:25:00,
2013-05-06 12:30:00,78.9,66.6,29.97,ESE,113,4.0,-999.0,66,0.01,,,0.03,Wunderground v.1.15,2013-05-06 22:30:00,
2013-05-06 12:35:00,78.9,66.6,29.97,ESE,113,4.0,-999.0,66,0.01,,,0.03,Wunderground v.1.15,2013-05-06 22:35:00,
2013-05-06 12:40:00,78.9,66.6,29.97,ESE,113,4.0,-999.0,66,0.01,,,0.03,Wunderground v.1.15,2013-05-06 22:40:00,
2013-05-06 12:45:00,81.1,66.8,29.97,NE,45,5.0,-999.0,62,0.00,,,0.03,Wunderground v.1.15,2013-05-06 22:45:00,
2013-05-06 12:50:00,81.1,66.8,29.97,NE,45,5.0,-999.0,62,0.00,,,0.03,Wunderground v.1.15,2013-05-06 22:50:00,
2013-05-06 12:55:00,81.1,66.8,29.97,NE,45,5.0,-999.0,62,0.00,,,0.03,Wunderground v.1.15,2013-05-06 22:55:00,
2013-05-06 13:00:00,81.1,66.8,29.97,NE,45,5.0,-999.0,62,0.00,,,0.03,Wunderground v.1.15,2013-05-06 23:00:00,
2013-05-06 13:05:00,81.1,66.8,29.97,NE,45,5.0,-999.0,62,0.00,,,0.03,Wunderground v.1.15,2013-05-06 23:05:00,
2013-05-06 13:10:00,81.1,66.8,29.97,NE,45,5.0,-999.0,62,0.00,,,0.03,Wunderground v.1.15,2013-05-06 23:10:00,
2013-05-06 13:15:00,82.1,67.8,29.95,NE,45,5.0,-999.0,62,0.00,,,0.03,Wunderground v.1.15,2013-05-06 23:15:00,
2013-05-06 13:20:00,82.1,67.8,29.95,NE,45,5.0,-999.0,62,0.00,,,0.03,Wunderground v.1.15,2013-05-06 23:20:00,
2013-05-06 13:25:00,82.1,67.8,29.95,NE,45,5.0,-999.0,62,0.00,,,0.03,Wunderground v.1.15,2013-05-06 23:25:00,
2013-05-06 13:30:00,82.1,67.8,29.95,NE,45,5.0,-999.0,62,0.00,,,0.03,Wunderground v.1.15,2013-05-06 23:30:00,
2013-05-06 13:35:00,82.1,67.8,29.95,NE,45,5.0,-999.0,62,0.00,,,0.03,Wunderground v.1.15,2013-05-06 23:35:00,
2013-05-06 13:40:00,82.1,67.8,29.95,NE,45,5.0,-999.0,62,0.00,,,0.03,Wunderground v.1.15,2013-05-06 23:40:00,
2013-05-06 13:45:00,80.4,66.2,29.95,NNE,23,5.0,-999.0,62,0.00,,,0.03,Wunderground v.1.15,2013-05-06 23:45:00,
2013-05-06 13:50:00,80.4,66.2,29.95,NNE,23,5.0,-999.0,62,0.00,,,0.03,Wunderground v.1.15,2013-05-06 23:50:00,
2013-05-06 13:55:00,80.4,66.2,29.95,NNE,23,5.0,-999.0,62,0.00,,,0.03,Wunderground v.1.15,2013-05-06 23:55:00,
2013-05-06 14:00:00,80.4,66.2,29.95,NNE,23,5.0,-999.0,62,0.00,,,0.03,Wunderground v.1.15,2013-05-07 00:00:00,
2013-05-06 14:05:00,80.4,66.2,29.95,NNE,23,5.0,-999.0,62,0.00,,,0.03,Wunderground v.1.15,2013-05-07 00:05:00,
2013-05-06 14:10:00,80.4,66.2,29.95,NNE,23,5.0,-999.0,62,0.00,,,0.03,Wunderground v.1.15,2013-05-07 00:10:00,
2013-05-06 14:15:00,80.7,66.0,29.93,NNE,23,5.0,-999.0,61,0.00,,,0.03,Wunderground v.1.15,2013-05-07 00:15:00,
2013-05-06 14:20:00,80.7,66.0,29.93,NNE,23,5.0,-999.0,61,0.00,,,0.03,Wunderground v.1.15,2013-05-07 00:20:00,
2013-05-06 14:25:00,80.7,66.0,29.93,NNE,23,5.0,-999.0,61,0.00,,,0.03,Wunderground v.1.15,2013-05-07 00:25:00,
2013-05-06 14:30:00,80.7,66.0,29.93,NNE,23,5.0,-999.0,61,0.00,,,0.03,Wunderground v.1.15,2013-05-07 00:30:00,
2013-05-06 14:35:00,80.7,66.0,29.93,NNE,23,5.0,-999.0,61,0.00,,,0.03,Wunderground v.1.15,2013-05-07 00:35:00,
2013-05-06 14:40:00,80.7,66.0,29.93,NNE,23,5.0,-999.0,61,0.00,,,0.03,Wunderground v.1.15,2013-05-07 00:40:00,
2013-05-06 14:45:00,82.6,65.8,29.92,NNE,23,5.0,-999.0,57,0.00,,,0.03,Wunderground v.1.15,2013-05-07 00:45:00,
2013-05-06 14:50:00,82.6,65.8,29.92,NNE,23,5.0,-999.0,57,0.00,,,0.03,Wunderground v.1.15,2013-05-07 00:50:00,
2013-05-06 14:55:00,82.6,65.8,29.92,NNE,23,5.0,-999.0,57,0.00,,,0.03,Wunderground v.1.15,2013-05-07 00:55:00,
2013-05-06 15:00:00,82.6,65.8,29.92,NNE,23,5.0,-999.0,57,0.00,,,0.03,Wunderground v.1.15,2013-05-07 01:00:00,
2013-05-06 15:05:00,82.6,65.8,29.92,NNE,23,5.0,-999.0,57,0.00,,,0.03,Wunderground v.1.15,2013-05-07 01:05:00,
2013-05-06 15:10:00,82.6,65.8,29.92,NNE,23,5.0,-999.0,57,0.00,,,0.03,Wunderground v.1.15,2013-05-07 01:10:00,
2013-05-06 15:15:00,82.9,66.6,29.92,NNE,23,5.0,-999.0,58,0.00,,,0.03,Wunderground v.1.15,2013-05-07 01:15:00,
2013-05-06 15:20:00,82.9,66.6,29.92,NNE,23,5.0,-999.0,58,0.00,,,0.03,Wunderground v.1.15,2013-05-07 01:20:00,
2013-05-06 15:25:00,82.9,66.6,29.92,NNE,23,5.0,-999.0,58,0.00,,,0.03,Wunderground v.1.15,2013-05-07 01:25:00,
2013-05-06 15:30:00,82.9,66.6,29.92,NNE,23,5.0,-999.0,58,0.00,,,0.03,Wunderground v.1.15,2013-05-07 01:30:00,
2013-05-06 15:35:00,82.9,66.6,29.92,NNE,23,5.0,-999.0,58,0.00,,,0.03,Wunderground v.1.15,2013-05-07 01:35:00,
2013-05-06 15:40:00,82.9,66.6,29.92,NNE,23,5.0,-999.0,58,0.00,,,0.03,Wunderground v.1.15,2013-05-07 01:40:00,
2013-05-06 15:45:00,81.5,67.2,29.92,NNE,23,4.0,-999.0,62,0.00,,,0.03,Wunderground v.1.15,2013-05-07 01:45:00,
2013-05-06 15:50:00,81.5,67.2,29.92,NNE,23,4.0,-999.0,62,0.00,,,0.03,Wunderground v.1.15,2013-05-07 01:50:00,
2013-05-06 15:55:00,81.5,67.2,29.92,NNE,23,4.0,-999.0,62,0.00,,,0.03,Wunderground v.1.15,2013-05-07 01:55:00,
2013-05-06 16:00:00,81.5,67.2,29.92,NNE,23,4.0,-999.0,62,0.00,,,0.03,Wunderground v.1.15,2013-05-07 02:00:00,
2013-05-06 16:05:00,81.5,67.2,29.92,NNE,23,4.0,-999.0,62,0.00,,,0.03,Wunderground v.1.15,2013-05-07 02:05:00,
2013-05-06 16:10:00,81.5,67.2,29.92,NNE,23,4.0,-999.0,62,0.00,,,0.03,Wunderground v.1.15,2013-05-07 02:10:00,
2013-05-06 16:15:00,78.6,66.3,29.92,NNE,23,4.0,-999.0,66,0.00,,,0.03,Wunderground v.1.15,2013-05-07 02:15:00,
2013-05-06 16:20:00,78.6,66.3,29.92,NNE,23,4.0,-999.0,66,0.00,,,0.03,Wunderground v.1.15,2013-05-07 02:20:00,
2013-05-06 16:25:00,78.6,66.3,29.92,NNE,23,4.0,-999.0,66,0.00,,,0.03,Wunderground v.1.15,2013-05-07 02:25:00,
2013-05-06 16:30:00,78.6,66.3,29.92,NNE,23,4.0,-999.0,66,0.00,,,0.03,Wunderground v.1.15,2013-05-07 02:30:00,
2013-05-06 16:35:00,78.6,66.3,29.92,NNE,23,4.0,-999.0,66,0.00,,,0.03,Wunderground v.1.15,2013-05-07 02:35:00,
2013-05-06 16:40:00,78.6,66.3,29.92,NNE,23,4.0,-999.0,66,0.00,,,0.03,Wunderground v.1.15,2013-05-07 02:40:00,
2013-05-06 16:45:00,76.8,65.4,29.92,NNE,23,4.0,-999.0,68,0.00,,,0.03,Wunderground v.1.15,2013-05-07 02:45:00,
2013-05-06 16:50:00,76.8,65.4,29.92,NNE,23,4.0,-999.0,68,0.00,,,0.03,Wunderground v.1.15,2013-05-07 02:50:00,
2013-05-06 16:55:00,76.8,65.4,29.92,NNE,23,4.0,-999.0,68,0.00,,,0.03,Wunderground v.1.15,2013-05-07 02:55:00,
2013-05-06 17:00:00,76.8,65.4,29.92,NNE,23,4.0,-999.0,68,0.00,,,0.03,Wunderground v.1.15,2013-05-07 03:00:00,
2013-05-06 17:05:00,76.8,65.4,29.92,NNE,23,4.0,-999.0,68,0.00,,,0.03,Wunderground v.1.15,2013-05-07 03:05:00,
2013-05-06 17:10:00,76.8,65.4,29.92,NNE,23,4.0,-999.0,68,0.00,,,0.03,Wunderground v.1.15,2013-05-07 03:10:00,
2013-05-06 17:15:00,75.2,65.1,29.93,NNE,23,3.0,-999.0,71,0.00,,,0.03,Wunderground v.1.15,2013-05-07 03:15:00,
2013-05-06 17:20:00,75.2,65.1,29.93,NNE,23,3.0,-999.0,71,0.00,,,0.03,Wunderground v.1.15,2013-05-07 03:20:00,
2013-05-06 17:25:00,75.2,65.1,29.93,NNE,23,3.0,-999.0,71,0.00,,,0.03,Wunderground v.1.15,2013-05-07 03:25:00,
2013-05-06 17:30:00,75.2,65.1,29.93,NNE,23,3.0,-999.0,71,0.00,,,0.03,Wunderground v.1.15,2013-05-07 03:30:00,
2013-05-06 17:35:00,75.2,65.1,29.93,NNE,23,3.0,-999.0,71,0.00,,,0.03,Wunderground v.1.15,2013-05-07 03:35:00,
2013-05-06 17:40:00,75.2,65.1,29.93,NNE,23,3.0,-999.0,71,0.00,,,0.03,Wunderground v.1.15,2013-05-07 03:40:00,
2013-05-06 17:45:00,74.5,65.3,29.95,NE,45,3.0,-999.0,73,0.00,,,0.03,Wunderground v.1.15,2013-05-07 03:45:00,
2013-05-06 17:50:00,74.5,65.3,29.95,NE,45,3.0,-999.0,73,0.00,,,0.03,Wunderground v.1.15,2013-05-07 03:50:00,
2013-05-06 17:55:00,74.5,65.3,29.95,NE,45,3.0,-999.0,73,0.00,,,0.03,Wunderground v.1.15,2013-05-07 03:55:00,
2013-05-06 18:00:00,74.5,65.3,29.95,NE,45,3.0,-999.0,73,0.00,,,0.03,Wunderground v.1.15,2013-05-07 04:00:00,
2013-05-06 18:05:00,74.5,65.3,29.95,NE,45,3.0,-999.0,73,0.00,,,0.03,Wunderground v.1.15,2013-05-07 04:05:00,
2013-05-06 18:10:00,74.5,65.3,29.95,NE,45,3.0,-999.0,73,0.00,,,0.03,Wunderground v.1.15,2013-05-07 04:10:00,
2013-05-06 18:15:00,72.9,64.9,29.96,NE,45,4.0,-999.0,76,0.00,,,0.03,Wunderground v.1.15,2013-05-07 04:15:00,
2013-05-06 18:20:00,72.9,64.9,29.96,NE,45,4.0,-999.0,76,0.00,,,0.03,Wunderground v.1.15,2013-05-07 04:20:00,
2013-05-06 18:25:00,72.9,64.9,29.96,NE,45,4.0,-999.0,76,0.00,,,0.03,Wunderground v.1.15,2013-05-07 04:25:00,
2013-05-06 18:30:00,72.9,64.9,29.96,NE,45,4.0,-999.0,76,0.00,,,0.03,Wunderground v.1.15,2013-05-07 04:30:00,
2013-05-06 18:35:00,72.9,64.9,29.96,NE,45,4.0,-999.0,76,0.00,,,0.03,Wunderground v.1.15,2013-05-07 04:35:00,
2013-05-06 18:40:00,72.9,64.9,29.96,NE,45,4.0,-999.0,76,0.00,,,0.03,Wunderground v.1.15,2013-05-07 04:40:00,
2013-05-06 18:45:00,71.7,64.8,29.97,NE,45,3.0,-999.0,79,0.00,,,0.03,Wunderground v.1.15,2013-05-07 04:45:00,
2013-05-06 18:50:00,71.7,64.8,29.97,NE,45,3.0,-999.0,79,0.00,,,0.03,Wunderground v.1.15,2013-05-07 04:50:00,
2013-05-06 18:55:00,71.7,64.8,29.97,NE,45,3.0,-999.0,79,0.00,,,0.03,Wunderground v.1.15,2013-05-07 04:55:00,
2013-05-06 19:00:00,71.7,64.8,29.97,NE,45,3.0,-999.0,79,0.00,,,0.03,Wunderground v.1.15,2013-05-07 05:00:00,
2013-05-06 19:05:00,71.7,64.8,29.97,NE,45,3.0,-999.0,79,0.00,,,0.03,Wunderground v.1.15,2013-05-07 05:05:00,
2013-05-06 19:10:00,71.7,64.8,29.97,NE,45,3.0,-999.0,79,0.00,,,0.03,Wunderground v.1.15,2013-05-07 05:10:00,
2013-05-06 19:15:00,70.5,64.4,29.99,NE,45,3.0,-999.0,81,0.00,,,0.03,Wunderground v.1.15,2013-05-07 05:15:00,
2013-05-06 19:20:00,70.5,64.4,29.99,NE,45,3.0,-999.0,81,0.00,,,0.03,Wunderground v.1.15,2013-05-07 05:20:00,
2013-05-06 19:25:00,70.5,64.4,29.99,NE,45,3.0,-999.0,81,0.00,,,0.03,Wunderground v.1.15,2013-05-07 05:25:00,
2013-05-06 19:30:00,70.5,64.4,29.99,NE,45,3.0,-999.0,81,0.00,,,0.03,Wunderground v.1.15,2013-05-07 05:30:00,
2013-05-06 19:35:00,70.5,64.4,29.99,NE,45,3.0,-999.0,81,0.00,,,0.03,Wunderground v.1.15,2013-05-07 05:35:00,
2013-05-06 19:40:00,70.5,64.4,29.99,NE,45,3.0,-999.0,81,0.00,,,0.03,Wunderground v.1.15,2013-05-07 05:40:00,
2013-05-06 19:45:00,69.6,63.5,29.99,NE,45,2.0,-999.0,81,0.00,,,0.03,Wunderground v.1.15,2013-05-07 05:45:00,
2013-05-06 19:50:00,69.6,63.5,29.99,NE,45,2.0,-999.0,81,0.00,,,0.03,Wunderground v.1.15,2013-05-07 05:50:00,
2013-05-06 19:55:00,69.6,63.5,29.99,NE,45,2.0,-999.0,81,0.00,,,0.03,Wunderground v.1.15,2013-05-07 05:55:00,
2013-05-06 20:00:00,69.6,63.5,29.99,NE,45,2.0,-999.0,81,0.00,,,0.03,Wunderground v.1.15,2013-05-07 06:00:00,
2013-05-06 20:05:00,69.6,63.5,29.99,NE,45,2.0,-999.0,81,0.00,,,0.03,Wunderground v.1.15,2013-05-07 06:05:00,
2013-05-06 20:10:00,69.6,63.5,29.99,NE,45,2.0,-999.0,81,0.00,,,0.03,Wunderground v.1.15,2013-05-07 06:10:00,
2013-05-06 20:15:00,69.1,63.0,30.00,NE,45,1.0,-999.0,81,0.00,,,0.03,Wunderground v.1.15,2013-05-07 06:15:00,
2013-05-06 20:20:00,69.1,63.0,30.00,NE,45,1.0,-999.0,81,0.00,,,0.03,Wunderground v.1.15,2013-05-07 06:20:00,
2013-05-06 20:25:00,69.1,63.0,30.00,NE,45,1.0,-999.0,81,0.00,,,0.03,Wunderground v.1.15,2013-05-07 06:25:00,
2013-05-06 20:30:00,69.1,63.0,30.00,NE,45,1.0,-999.0,81,0.00,,,0.03,Wunderground v.1.15,2013-05-07 06:30:00,
2013-05-06 20:35:00,69.1,63.0,30.00,NE,45,1.0,-999.0,81,0.00,,,0.03,Wunderground v.1.15,2013-05-07 06:35:00,
2013-05-06 20:40:00,69.1,63.0,30.00,NE,45,1.0,-999.0,81,0.00,,,0.03,Wunderground v.1.15,2013-05-07 06:40:00,
2013-05-06 20:45:00,68.7,62.3,30.01,NE,45,1.0,-999.0,80,0.00,,,0.03,Wunderground v.1.15,2013-05-07 06:45:00,
2013-05-06 20:50:00,68.7,62.3,30.01,NE,45,1.0,-999.0,80,0.00,,,0.03,Wunderground v.1.15,2013-05-07 06:50:00,
2013-05-06 20:55:00,68.7,62.3,30.01,NE,45,1.0,-999.0,80,0.00,,,0.03,Wunderground v.1.15,2013-05-07 06:55:00,
2013-05-06 21:00:00,68.7,62.3,30.01,NE,45,1.0,-999.0,80,0.00,,,0.03,Wunderground v.1.15,2013-05-07 07:00:00,
2013-05-06 21:05:00,68.7,62.3,30.01,NE,45,1.0,-999.0,80,0.00,,,0.03,Wunderground v.1.15,2013-05-07 07:05:00,
2013-05-06 21:10:00,68.7,62.3,30.01,NE,45,1.0,-999.0,80,0.00,,,0.03,Wunderground v.1.15,2013-05-07 07:10:00,
2013-05-06 21:15:00,68.7,61.9,30.01,NE,45,1.0,-999.0,79,0.00,,,0.03,Wunderground v.1.15,2013-05-07 07:15:00,
2013-05-06 21:20:00,68.7,61.9,30.01,NE,45,1.0,-999.0,79,0.00,,,0.03,Wunderground v.1.15,2013-05-07 07:20:00,
2013-05-06 21:25:00,68.7,61.9,30.01,NE,45,1.0,-999.0,79,0.00,,,0.03,Wunderground v.1.15,2013-05-07 07:25:00,
2013-05-06 21:30:00,68.7,61.9,30.01,NE,45,1.0,-999.0,79,0.00,,,0.03,Wunderground v.1.15,2013-05-07 07:30:00,
2013-05-06 21:35:00,68.7,61.9,30.01,NE,45,1.0,-999.0,79,0.00,,,0.03,Wunderground v.1.15,2013-05-07 07:35:00,
2013-05-06 21:40:00,68.7,61.9,30.01,NE,45,1.0,-999.0,79,0.00,,,0.03,Wunderground v.1.15,2013-05-07 07:40:00,
2013-05-06 21:45:00,68.4,61.6,30.02,NE,45,0.0,-999.0,79,0.00,,,0.03,Wunderground v.1.15,2013-05-07 07:45:00,
2013-05-06 21:50:00,68.4,61.6,30.02,NE,45,0.0,-999.0,79,0.00,,,0.03,Wunderground v.1.15,2013-05-07 07:50:00,
2013-05-06 21:55:00,68.4,61.6,30.02,NE,45,0.0,-999.0,79,0.00,,,0.03,Wunderground v.1.15,2013-05-07 07:55:00,
2013-05-06 22:00:00,68.4,61.6,30.02,NE,45,0.0,-999.0,79,0.00,,,0.03,Wunderground v.1.15,2013-05-07 08:00:00,
2013-05-06 22:05:00,68.4,61.6,30.02,NE,45,0.0,-999.0,79,0.00,,,0.03,Wunderground v.1.15,2013-05-07 08:05:00,
2013-05-06 22:10:00,68.4,61.6,30.02,NE,45,0.0,-999.0,79,0.00,,,0.03,Wunderground v.1.15,2013-05-07 08:10:00,
2013-05-06 22:15:00,68.0,60.5,30.02,NE,45,1.0,-999.0,77,0.00,,,0.03,Wunderground v.1.15,2013-05-07 08:15:00,
2013-05-06 22:20:00,68.0,60.5,30.02,NE,45,1.0,-999.0,77,0.00,,,0.03,Wunderground v.1.15,2013-05-07 08:20:00,
2013-05-06 22:25:00,68.0,60.5,30.02,NE,45,1.0,-999.0,77,0.00,,,0.03,Wunderground v.1.15,2013-05-07 08:25:00,
2013-05-06 22:30:00,68.0,60.5,30.02,NE,45,1.0,-999.0,77,0.00,,,0.03,Wunderground v.1.15,2013-05-07 08:30:00,
2013-05-06 22:35:00,68.0,60.5,30.02,NE,45,1.0,-999.0,77,0.00,,,0.03,Wunderground v.1.15,2013-05-07 08:35:00,
2013-05-06 22:40:00,68.0,60.5,30.02,NE,45,1.0,-999.0,77,0.00,,,0.03,Wunderground v.1.15,2013-05-07 08:40:00,
2013-05-06 22:45:00,67.8,60.0,30.02,NE,45,1.0,-999.0,76,0.00,,,0.03,Wunderground v.1.15,2013-05-07 08:45:00,
2013-05-06 22:50:00,67.8,60.0,30.02,NE,45,1.0,-999.0,76,0.00,,,0.03,Wunderground v.1.15,2013-05-07 08:50:00,
2013-05-06 22:55:00,67.8,60.0,30.02,NE,45,1.0,-999.0,76,0.00,,,0.03,Wunderground v.1.15,2013-05-07 08:55:00,
2013-05-06 23:00:00,67.8,60.0,30.02,NE,45,1.0,-999.0,76,0.00,,,0.03,Wunderground v.1.15,2013-05-07 09:00:00,
2013-05-06 23:05:00,67.8,60.0,30.02,NE,45,1.0,-999.0,76,0.00,,,0.03,Wunderground v.1.15,2013-05-07 09:05:00,
2013-05-06 23:10:00,67.8,60.0,30.02,NE,45,1.0,-999.0,76,0.00,,,0.03,Wunderground v.1.15,2013-05-07 09:10:00,
2013-05-06 23:15:00,67.4,59.9,30.01,NE,45,2.0,-999.0,77,0.00,,,0.03,Wunderground v.1.15,2013-05-07 09:15:00,
2013-05-06 23:20:00,67.4,59.9,30.01,NE,45,2.0,-999.0,77,0.00,,,0.03,Wunderground v.1.15,2013-05-07 09:20:00,
2013-05-06 23:25:00,67.4,59.9,30.01,NE,45,2.0,-999.0,77,0.00,,,0.03,Wunderground v.1.15,2013-05-07 09:25:00,
2013-05-06 23:30:00,67.4,59.9,30.01,NE,45,2.0,-999.0,77,0.00,,,0.03,Wunderground v.1.15,2013-05-07 09:30:00,
2013-05-06 23:35:00,67.4,59.9,30.01,NE,45,2.0,-999.0,77,0.00,,,0.03,Wunderground v.1.15,2013-05-07 09:35:00,
2013-05-06 23:40:00,67.4,59.9,30.01,NE,45,2.0,-999.0,77,0.00,,,0.03,Wunderground v.1.15,2013-05-07 09:40:00,
2013-05-06 23:45:00,67.5,58.9,30.01,NE,45,0.0,-999.0,74,0.00,,,0.03,Wunderground v.1.15,2013-05-07 09:45:00,
2013-05-06 23:50:00,67.5,58.9,30.01,NE,45,0.0,-999.0,74,0.00,,,0.03,Wunderground v.1.15,2013-05-07 09:50:00,
2013-05-06 23:55:00,67.5,58.9,30.01,NE,45,0.0,-999.0,74,0.00,,,0.03,Wunderground v.1.15,2013-05-07 09:55:00,